FW7233 Weather Reports


Display with metric or nautical units.
time (UTC)temp
F
wind
direction
speed
MPH
gust
MPH
rain 1hr
in
rain 24hr
in
rain mn
in
humidity
%
barometer
mb
20260509005638 47 133 0.0 0.0 0.00 0.00 0.00 99 1019.9
20260509004637 47 134 0.0 0.0 0.00 0.00 0.00 99 1020.2
20260509003638 47 139 0.0 0.0 0.00 0.00 0.00 99 1020.3
20260509002636 47 133 0.0 0.0 0.00 0.00 0.00 99 1020.2
20260509001636 47 142 0.0 0.0 0.00 0.00 0.00 99 1020.2
20260509000639 47 146 0.0 0.0 0.00 0.00 0.00 99 1020.1
20260508235638 47 142 0.0 1.0 0.00 0.00 0.00 99 1020.3
20260508234635 47 152 0.0 0.0 0.00 0.00 0.00 99 1020.3
20260508233635 47 143 0.0 1.0 0.00 0.00 0.00 99 1020.2
20260508232635 47 194 1.0 1.0 0.00 0.00 0.00 99 1020.1
20260508231635 47 154 0.0 0.0 0.00 0.00 0.00 99 1020.1
20260508225636 47 145 0.0 0.0 0.00 0.00 0.00 99 1020.1
20260508223636 47 135 0.0 0.0 0.00 0.00 0.00 99 1020.2
20260508222638 47 157 0.0 0.0 0.00 0.00 0.00 99 1020.1
20260508221636 47 154 0.0 0.0 0.00 0.00 0.00 99 1019.9
20260508215635 47 146 0.0 0.0 0.00 0.00 0.00 99 1020.0
20260508214635 47 154 0.0 0.0 0.00 0.00 0.00 99 1020.2
20260508213636 47 142 0.0 0.0 0.00 0.00 0.00 99 1020.2
20260508212634 47 128 0.0 0.0 0.00 0.00 0.00 99 1020.3
20260508211637 47 145 0.0 0.0 0.00 0.00 0.00 99 1020.4
20260508205637 47 148 0.0 0.0 0.00 0.00 0.00 99 1020.3
20260508203638 47 150 0.0 0.0 0.00 0.00 0.00 99 1020.4
20260508202635 47 149 0.0 0.0 0.00 0.00 0.00 99 1020.2
20260508200636 47 150 0.0 0.0 0.00 0.00 0.00 99 1020.3
20260508195635 48 150 0.0 0.0 0.00 0.00 0.00 98 1020.4
20260508193636 47 148 0.0 0.0 0.00 0.00 0.00 98 1020.3
20260508192637 48 148 0.0 0.0 0.00 0.00 0.00 98 1020.4
20260508191635 48 148 0.0 0.0 0.00 0.00 0.00 98 1020.3
20260508190635 48 148 0.0 0.0 0.00 0.00 0.00 97 1020.1
20260508185638 48 148 0.0 0.0 0.00 0.00 0.00 96 1020.2
20260508184635 48 148 0.0 0.0 0.00 0.00 0.00 96 1020.0
20260508182635 49 148 0.0 0.0 0.00 0.00 0.00 94 1019.8
20260508181638 49 148 0.0 0.0 0.00 0.00 0.00 93 1019.7
20260508175635 50 127 0.0 0.0 0.00 0.00 0.00 91 1019.5
20260508174635 50 145 0.0 1.0 0.00 0.00 0.00 91 1019.7
20260508173635 50 142 0.0 1.0 0.00 0.00 0.00 90 1019.5
20260508171635 51 125 0.0 1.0 0.00 0.00 0.00 89 1019.2
20260508170635 51 130 0.0 1.0 0.00 0.00 0.00 88 1019.3
20260508165636 51 154 0.0 1.0 0.00 0.00 0.00 88 1019.6
20260508164636 51 69 0.0 2.0 0.00 0.00 0.00 88 1019.5
20260508163636 51 126 0.0 1.0 0.00 0.00 0.00 88 1019.4
20260508162636 51 113 0.0 1.0 0.00 0.00 0.00 88 1019.3
20260508161636 51 114 0.0 2.0 0.00 0.00 0.00 88 1019.4
20260508160637 52 145 0.0 1.0 0.00 0.00 0.00 88 1019.1
20260508155635 52 118 0.0 1.0 0.00 0.00 0.00 88 1019.3
20260508154635 52 181 1.0 2.0 0.00 0.00 0.00 89 1019.2
20260508153636 51 133 0.0 1.0 0.00 0.00 0.00 90 1019.3
20260508152637 51 126 0.0 2.0 0.00 0.00 0.00 89 1019.1
20260508151637 51 126 0.0 1.0 0.00 0.00 0.00 88 1019.2
20260508150648 52 141 0.0 4.0 0.00 0.00 0.00 86 1018.9
20260508145635 53 127 0.0 4.0 0.00 0.00 0.00 82 1019.2
20260508144635 54 66 0.0 2.0 0.00 0.00 0.00 82 1019.1
20260508143635 54 136 0.0 3.0 0.00 0.00 0.00 82 1019.4
20260508142648 54 134 0.0 2.0 0.00 0.00 0.00 83 1019.1
20260508141650 54 107 0.0 4.0 0.00 0.00 0.00 84 1019.3
20260508140638 53 109 0.0 2.0 0.00 0.00 0.00 85 1019.2
20260508135636 53 61 0.0 3.0 0.00 0.00 0.00 86 1019.3
20260508134635 53 37 0.0 4.0 0.00 0.00 0.00 85 1019.3
20260508133637 53 178 1.0 2.0 0.00 0.00 0.00 84 1019.3
20260508132637 53 118 0.0 2.0 0.00 0.00 0.00 86 1019.3
20260508131639 53 122 0.0 3.0 0.00 0.00 0.00 86 1019.6
20260508125640 52 152 0.0 4.0 0.00 0.00 0.00 87 1019.4
20260508121635 52 87 0.0 3.0 0.00 0.00 0.00 90 1019.6
20260508115636 50 142 0.0 3.0 0.00 0.00 0.00 92 1019.6
20260508113635 51 138 0.0 3.0 0.00 0.00 0.00 92 1019.3
20260508112637 50 113 0.0 2.0 0.00 0.00 0.00 92 1019.4
20260508111637 50 201 1.0 2.0 0.00 0.00 0.00 92 1019.1
20260508110635 50 190 0.0 2.0 0.00 0.00 0.00 92 1019.3
20260508105637 50 134 0.0 2.0 0.00 0.00 0.00 93 1019.2
20260508104637 49 73 0.0 2.0 0.00 0.00 0.00 93 1019.3
20260508102635 50 352 0.0 2.0 0.00 0.00 0.00 92 1019.1
20260508101635 50 24 1.0 2.0 0.00 0.00 0.00 93 1019.1
20260508095635 49 131 0.0 3.0 0.00 0.00 0.00 94 1019.3
20260508094638 49 121 0.0 1.0 0.00 0.00 0.00 94 1019.0
20260508093635 50 139 0.0 1.0 0.00 0.00 0.00 93 1019.2
20260508092637 50 139 0.0 4.0 0.00 0.00 0.00 93 1019.0
20260508085635 49 124 0.0 3.0 0.00 0.00 0.00 95 1018.9
20260508084636 50 32 1.0 3.0 0.00 0.00 0.00 96 1019.0
20260508082635 48 132 0.0 3.0 0.00 0.00 0.00 96 1018.6
20260508081636 48 141 0.0 2.0 0.00 0.00 0.00 97 1018.7
20260508080636 47 28 1.0 2.0 0.00 0.00 0.00 97 1018.8
20260508075636 47 119 0.0 3.0 0.00 0.00 0.00 97 1018.7
20260508074635 47 77 0.0 3.0 0.00 0.00 0.00 98 1018.3
20260508073637 47 179 0.0 1.0 0.00 0.00 0.00 98 1018.5
20260508072635 47 149 1.0 2.0 0.00 0.00 0.00 98 1018.5
20260508070635 47 108 0.0 2.0 0.00 0.00 0.00 99 1018.3
20260508063635 47 197 0.0 3.0 0.00 0.00 0.00 99 1018.0
20260508062636 47 143 0.0 2.0 0.00 0.00 0.00 99 1018.1
20260508060637 47 140 0.0 2.0 0.00 0.03 0.00 99 1017.8
20260508055635 46 169 0.0 1.0 0.00 0.03 0.00 99 1017.7
20260508054635 46 153 1.0 2.0 0.00 0.03 0.00 99 1017.8
20260508053635 46 144 0.0 2.0 0.00 0.03 0.00 99 1017.5
20260508052635 46 166 1.0 3.0 0.00 0.03 0.00 99 1017.9
20260508050635 46 71 0.0 2.0 0.00 0.03 0.00 98 1017.8
20260508045637 46 120 0.0 2.0 0.00 0.03 0.00 98 1017.7
20260508044638 46 167 0.0 1.0 0.00 0.03 0.00 98 1017.7
20260508043637 46 146 0.0 1.0 0.00 0.03 0.00 98 1017.7
20260508035648 46 135 0.0 1.0 0.00 0.03 0.00 98 1017.1
20260508034636 46 134 0.0 1.0 0.00 0.03 0.00 98 1017.1
20260508033635 46 149 0.0 1.0 0.00 0.03 0.00 98 1017.0
20260508032638 46 134 0.0 0.0 0.00 0.04 0.00 98 1016.8
20260508030635 46 136 0.0 1.0 0.00 0.04 0.00 98 1016.7
20260508024637 46 142 0.0 0.0 0.00 0.05 0.00 97 1016.7
20260508023635 46 136 0.0 1.0 0.00 0.05 0.00 97 1016.8
20260508021635 46 132 0.0 1.0 0.00 0.05 0.00 97 1016.7
20260508020635 46 138 0.0 1.0 0.00 0.05 0.00 96 1016.9
20260508015637 46 93 0.0 1.0 0.00 0.05 0.00 96 1016.8
20260508012635 46 336 1.0 2.0 0.00 0.05 0.00 95 1016.6
20260508011635 46 128 0.0 1.0 0.00 0.05 0.00 95 1016.8
20260508010636 47 137 0.0 2.0 0.00 0.05 0.00 94 1017.3